Location: Bemmer
(51.5498°N, 5.6249°E)
Time: 21:09:47
(UTC+00:00)

Daily predictions for brighter satellites

Satellite Brightness Start Highest point End
(mag) Time Altitude Azimuth Time Altitude Azimuth Time Altitude Azimuth
Cosmos 2263 Rocket 3.1 17:48:10 10° NW 17:53:35 54° WSW 17:59:00 10° S
Meteor 1-18 Rocket 4.5 17:48:30 10° N 17:54:22 55° ENE 18:00:09 10° SSE
Cosmos 968 Rocket 3.5 17:49:15 10° NNW 17:54:34 85° ENE 17:59:51 10° SSE
SL-16 R/B 2.5 17:50:47 10° S 17:56:10 47° ESE 18:01:36 10° NE
FALCON 9 DEB 3.1 17:54:01 10° W 17:57:11 68° N 18:00:20 10° ENE
ARGOS 3.3 17:53:02 10° SE 17:58:17 54° ENE 18:03:35 10° N
Cosmos 1486 Rocket 4.0 17:53:00 10° NNW 17:58:20 81° ENE 18:03:38 10° SSE
Cosmos 1515 3.8 17:55:04 10° N 17:58:50 53° ENE 18:02:34 10° SSE
Okean 1 3.5 17:54:56 10° N 17:58:55 53° ENE 18:02:52 10° SSE
SJ 16-02 3.4 17:58:31 10° NNE 18:00:05 12° NE 18:01:39 10° ENE
SeaSat 1 3.5 17:57:42 10° NE 18:01:45 25° ESE 18:05:46 10° SSE
Okean 1-7 4.1 17:58:35 10° N 18:02:14 25° ENE 18:05:51 10° ESE
Cosmos 1707 Rocket 3.9 17:58:01 10° NNW 18:02:26 74° W 18:06:46 10° S
Cosmos 1633 Rocket 3.1 17:59:26 10° S 18:03:46 58° E 18:08:09 10° NNE
Cosmos 2184 Rocket 4.0 17:57:51 10° S 18:03:58 69° E 18:10:10 10° NNE
OBJECT-B 2.9 18:03:30 10° E 18:04:41 12° ENE 18:05:52 10° NE
CZ-2C R/B 3.3 18:01:52 10° NNE 18:06:48 32° E 18:11:36 10° SSE
CZ-4 R/B 1.3 18:05:38 10° SSE 18:09:29 88° WSW 18:13:27 10° NNW
SAR-Lupe-4 4.3 18:06:18 10° NNE 18:09:34 32° E 18:12:49 10° SSE
H-2A R/B 2.2 18:04:09 10° SSE 18:09:37 87° ENE 18:15:06 10° NNW
USA 305 3.1 18:06:26 10° W 18:10:43 69° N 18:14:50 11° ENE
IRS-1C Rocket 4.4 18:08:09 10° S 18:13:25 74° WSW 18:18:44 10° NNW
Gbstr 26 Del rocket 3.2 18:09:05 10° WSW 18:13:26 83° SSE 18:18:27 12° E
SL-4 R/B 1.5 18:12:08 10° W 18:15:45 89° SE 18:18:38 14° E
Meteor 1-20 Rocket 4.1 18:10:40 10° S 18:16:07 81° E 18:21:40 10° NNE
Cosmos 1302 Rocket 4.1 18:11:15 10° SSW 18:16:28 86° WNW 18:21:44 10° NNE
USA 307 3.1 18:17:44 10° W 18:22:01 67° N 18:25:41 14° ENE
FALCON 9 DEB 3.4 18:19:55 10° WNW 18:23:19 63° SSW 18:26:13 13° ESE
ATLAS CENTAUR R/B 2.2 18:21:59 10° S 18:24:57 24° ESE 18:26:57 16° ENE
Cosmos 1354 Rocket 4.0 18:19:46 10° NNW 18:25:02 71° ENE 18:30:15 10° SSE
USA 306 3.1 18:21:10 10° W 18:25:25 65° N 18:28:56 15° ENE
USA 186 2.5 18:25:07 19° E 18:25:25 20° ENE 18:27:22 10° NNE
Cosmos 44 Rocket 4.2 18:21:21 10° NW 18:26:29 56° WSW 18:31:33 10° SSE
ERS-2 2.2 18:23:19 10° NNE 18:26:55 54° ESE 18:30:30 10° S
FALCON 9 DEB 3.1 18:24:32 10° W 18:27:41 64° N 18:29:48 19° E
Cosmos 1844 Rocket 2.6 18:23:09 10° NNW 18:28:46 74° ENE 18:34:20 10° SE
Cosmos 2084 Rocket 4.1 18:24:47 10° NW 18:29:02 59° SW 18:33:26 10° SSE
SAR-Lupe-1 4.1 18:25:31 10° NNE 18:29:04 54° ESE 18:32:35 10° S
Okean-O 3.0 18:24:57 10° S 18:29:22 70° WSW 18:33:49 10° NNW
FALCON 9 DEB 3.1 18:26:28 10° W 18:29:39 64° N 18:31:45 19° ENE
CSL-04 Rocket 3.7 18:25:13 10° SSE 18:30:45 77° ENE 18:36:17 10° NNW
CSL-04 Debris 4.2 18:26:39 10° SSE 18:32:06 84° ENE 18:37:37 10° NNW
USA 308 3.1 18:28:21 10° W 18:32:37 64° N 18:35:51 17° ENE
Cosmos 1777 Rocket 4.4 18:28:36 10° NNW 18:33:38 43° ENE 18:37:59 13° SE
Cosmos 1666 3.6 18:31:53 10° SSE 18:35:01 26° E 18:38:09 10° NNE
Cosmos 1503 Rocket 4.0 18:30:03 10° NNW 18:35:17 87° WSW 18:40:27 10° SSE
H-2A R/B 4.3 18:32:09 10° N 18:35:36 26° WNW 18:39:03 10° WSW
HJ-1C 3.6 18:33:57 10° S 18:37:15 73° WSW 18:40:35 10° NNW
PSLV R/B 3.9 18:33:54 10° NNE 18:38:02 88° E 18:42:06 10° SSW
Cosmos 2341 Rocket 4.2 18:33:05 10° SSE 18:39:04 48° E 18:45:04 10° NNE
Meteor 1-5 Rocket 4.4 18:34:18 10° SSE 18:39:21 42° E 18:44:33 10° NNE
Cosmos 1844 3.7 18:34:45 10° NNW 18:40:34 76° ENE 18:46:18 10° SE
Okean 3 4.3 18:37:08 10° N 18:40:53 29° ENE 18:42:57 20° ESE
CZ-4B R/B 3.3 18:39:17 10° N 18:42:00 30° WNW 18:44:44 10° SW
Cosmos 1470 Rocket 3.5 18:38:30 10° S 18:42:58 82° E 18:47:27 10° NNE
Cosmos 2360 Rocket 2.3 18:40:04 10° S 18:45:31 52° ESE 18:51:01 10° NE
Cosmos 2278 Rocket 3.2 18:40:58 10° NNW 18:45:53 29° NE 18:48:36 20° E
Ariane Rocket 3.5 18:42:04 13° SE 18:46:11 41° ENE 18:50:58 10° N
Cosmos 1602 4.4 18:42:47 10° SSW 18:46:39 59° WNW 18:50:32 10° N
Meteor 2-4 Rocket 3.8 18:46:41 10° NNW 18:52:33 90° WSW 18:58:29 10° S
Cosmos 1703 Rocket 3.4 18:48:26 10° N 18:52:52 74° ENE 18:57:13 10° SSE
Cosmos 1500 3.0 18:49:55 10° S 18:53:39 82° E 18:57:24 10° NNE
Cosmos 1689 Rocket 2.7 18:52:38 10° N 18:55:28 56° WNW 18:58:18 10° SSW
Cosmos 2333 Rocket 2.9 18:50:58 10° SSE 18:55:49 30° ESE 19:00:43 10° NE
Cosmos 2218 Rocket 4.3 18:51:41 10° SSE 18:57:41 45° E 19:03:42 10° NNE
SL-08 RB Rocket 4.0 18:53:27 10° S 18:57:58 69° WSW 19:02:33 10° NNW
Meteor 2-12 Rocket 4.5 18:53:10 10° S 18:59:14 86° W 19:05:23 10° N
ERBS 2.9 18:57:30 10° W 19:00:45 51° NNW 19:02:19 26° NE
Cosmos 1980 Rocket 4.1 18:57:11 10° W 19:02:05 29° NW 19:07:00 10° NNE
Aureole 2 Rocket 4.3 19:01:43 10° NW 19:03:44 21° WSW 19:05:42 10° SSW
Cosmos 1933 Rocket 3.5 18:59:30 10° S 19:03:53 89° E 19:08:18 10° N
Cosmos 1943 Rocket 4.1 19:01:25 10° N 19:04:33 15° NNE 19:06:52 12° NE
Cosmos 2242 Rocket 3.9 19:06:24 10° NNW 19:10:54 68° W 19:15:19 10° S
Resurs 01 Rocket 2.4 19:12:41 31° ENE 19:12:50 31° ENE 19:16:43 10° N
Cosmos 2322 Rocket 2.6 19:09:57 10° SW 19:15:31 65° NW 19:21:09 10° NNE
Cosmos 1461 4.5 19:11:22 10° WSW 19:15:50 40° NW 19:20:18 10° NNE
Abrixas rocket 3.0 19:14:26 10° WSW 19:16:07 30° SW 19:16:07 30° SW
SME Rocket 4.3 19:08:32 10° NNE 19:17:05 58° E 19:22:35 10° S
Lacrosse 4 Rocket 3.5 19:13:42 10° S 19:14:29 14° SSE 19:14:29 14° SSE
Cosmos 1959 Rocket 4.4 19:13:50 10° S 19:19:48 60° E 19:25:49 10° NNE
FALCON 9 DEB 2.9 19:17:32 10° WNW 19:20:44 73° N 19:20:46 73° NNE
Cosmos 192 4.4 19:18:12 10° S 19:22:56 50° ESE 19:27:42 10° NNE
SJ-6B 2.9 19:22:30 21° S 19:25:11 81° WSW 19:29:16 10° NNW
COSMOS 2428 3.3 19:20:38 10° S 19:32:12 - NE 19:24:51 34° SE
ASTEX 1 3.3 19:21:24 10° NNE 19:26:16 62° E 19:30:11 15° S
Meteor 1-23 Rocket 4.2 19:22:50 10° N 19:28:22 59° ENE 19:30:27 37° SE
GP-B 4.0 19:25:14 10° SSW 19:29:32 50° W 19:33:53 10° N
MOS 1 4.2 19:25:33 17° SSE 19:30:05 86° ENE 19:35:48 10° NNW
Cosmos 2219 Rocket 2.3 19:27:20 10° S 19:32:41 47° ESE 19:38:03 10° NE
Meteor 1-11 Rocket 3.6 19:27:21 10° S 19:32:59 66° E 19:38:34 10° NNE
FALCON 9 DEB 3.3 19:29:58 10° WNW 19:32:42 62° WNW 19:32:42 62° WNW
OBJECT-B 1.1 19:36:26 64° WSW 19:36:29 64° W 19:39:43 10° NNW
SeaSat 1 2.8 19:34:43 10° NNE 19:39:38 65° NW 19:44:30 10° SW
Resurs 1-3 3.4 19:38:47 57° SSE 19:39:40 81° ENE 19:44:05 10° NNW
SJ 16-02 1.4 19:35:18 10° NNW 19:39:34 57° ENE 19:39:34 57° ENE
Okean 1-7 4.3 19:35:51 10° NNW 19:39:59 41° W 19:44:04 10° SSW
SL-16 R/B 3.5 19:35:06 10° WSW 19:40:25 40° NW 19:45:46 10° NNE
Terra 4.0 19:42:57 13° NNE 19:42:57 13° NNE 19:44:09 10° NNE
Cosmos 1066 Rocket 4.2 19:36:33 10° NNW 19:42:17 90° W 19:45:41 26° S
USA 234 3.2 19:39:54 34° ENE 19:42:46 60° SE 19:49:13 10° SW
Cosmos 1536 4.2 19:46:16 28° NNE 19:46:16 28° NNE 19:48:14 10° NNE
CZ-2C R/B 3.7 19:42:00 10° N 19:47:17 48° WNW 19:52:26 10° SW
Meteor 2-20 Rocket 4.4 19:41:51 10° N 19:47:54 60° ENE 19:49:08 50° ESE
Cosmos 2369 Rocket 4.0 19:46:22 10° N 19:49:49 16° NNE 19:50:42 16° NE
USA 305 3.0 19:46:42 10° WNW 19:50:56 68° N 19:50:56 68° N
BREEZE-M DEB (TANK) 2.7 19:48:21 10° W 19:51:09 63° S 19:51:10 63° S
Cosmos 2322 3.6 19:46:55 10° SSW 19:52:38 80° ESE 19:58:23 10° NNE
SL-4 R/B 3.1 19:51:49 10° W 19:54:12 32° WSW 19:54:12 32° WSW
USA 186 4.5 19:56:42 14° W 19:56:42 14° W 19:57:49 10° NW
Cosmos 1869 Rocket 4.0 19:53:54 10° SSW 19:58:13 61° WNW 20:02:36 10° N
Cosmos 1898 Rocket 4.0 19:53:15 10° NNW 19:57:51 45° NE 19:57:51 45° NE
Gbstr 26 Del rocket 3.3 19:55:40 10° W 20:00:29 88° SSW 20:00:59 75° ESE
Spot 2 Rocket 4.3 20:01:34 37° NE 20:01:34 37° NE 20:05:20 10° N
SL-8 Rocket 4.4 19:54:37 10° SSW 20:00:48 63° WNW 20:06:58 10° N
USA 307 3.2 19:58:02 10° WNW 20:01:49 63° NW 20:01:49 63° NW
ERS-1 Rocket 4.4 20:04:10 25° NNE 20:04:10 25° NNE 20:06:59 10° N
ATLAS CENTAUR R/B 2.2 20:00:05 10° WSW 20:03:11 43° WNW 20:03:11 43° WNW
Cosmos 1378 4.1 20:00:41 10° NNW 20:03:54 47° WNW 20:03:54 47° WNW
USA 306 3.3 20:01:24 10° WNW 20:05:03 60° NW 20:05:03 60° NW
USA 308 3.6 20:08:37 10° WNW 20:12:00 53° NW 20:12:00 53° NW
Cosmos 2366 rocket 4.5 20:09:37 10° SSW 20:15:52 61° WNW 20:22:11 10° N
Landsat 7 4.2 20:17:05 56° N 20:17:05 56° N 20:20:51 10° NNW
USA 81 4.4 20:17:38 52° NNE 20:17:38 52° NNE 20:21:38 10° N
NOSS 3-3 (A) 4.4 20:09:16 10° NW 20:16:39 88° SW 20:18:42 55° SE
NOSS 3-3 (C) 4.4 20:09:22 10° NW 20:16:45 88° SW 20:18:47 56° SE
SL-08 R/B 4.5 20:11:58 19° S 20:16:48 89° W 20:23:21 10° N
SPOT 3 Rocket 3.6 20:18:38 68° SW 20:19:03 72° WSW 20:24:18 10° NNW
ARIANE 5 R/B 4.1 20:21:37 29° N 20:21:37 29° N 20:23:58 10° N
Cosmos 2221 Rocket 4.3 20:19:14 10° NNW 20:23:10 51° WNW 20:23:10 51° WNW
Ariane Rocket 4.4 20:22:15 19° SSW 20:25:13 35° W 20:29:54 10° NNW
SPOT 1/Viking Rocket 4.0 20:29:56 53° N 20:29:56 53° N 20:33:55 10° NNW
Cosmos 2360 Rocket 3.6 20:24:31 10° WSW 20:29:44 37° NW 20:35:00 10° NNE
Cosmos 2278 Rocket 2.3 20:24:51 10° NNW 20:30:27 72° WSW 20:30:27 72° WSW
Cosmos 990 Rocket 4.4 20:29:56 10° NNW 20:34:05 58° NNW 20:34:05 58° NNW
Cosmos 2333 Rocket 2.7 20:34:10 10° SW 20:39:46 59° NW 20:45:28 10° NNE
Cosmos 1821 Rocket 3.9 20:41:55 81° WNW 20:41:55 81° WNW 20:48:03 10° N
Resurs 01 Rocket 3.3 20:50:14 32° WNW 20:50:14 32° WNW 20:53:21 10° NNW
Cosmos 1943 Rocket 3.4 20:44:35 10° NNW 20:48:24 34° NNE 20:48:24 34° NNE
Cosmos 2123 Rocket 4.3 20:54:48 10° NNW 21:00:09 65° NW 21:00:09 65° NW
COSMOS 2428 4.2 21:04:27 10° SW 21:14:00 18° NNE 21:15:30 10° NNE
Cosmos 2219 Rocket 3.4 21:11:33 10° WSW 21:16:46 39° NW 21:22:03 10° NNE
SJ 16-02 3.9 21:14:41 10° NW 21:16:35 17° WNW 21:16:35 17° WNW
Terra 4.1 21:21:49 20° NNW 21:21:49 20° NNW 21:23:20 10° NNW
USA 234 3.7 21:27:15 56° WNW 21:27:15 56° WNW 21:32:25 10° W
USA 281 3.9 21:34:30 48° N 21:34:30 48° N 21:39:07 10° NNW
Cosmos 2369 Rocket 3.9 21:29:49 10° NNW 21:32:29 27° N 21:32:29 27° N
